Content
SEND FEEDBACK

Daily
Averages
Monthly
Summary
United States of America

WILLIAMSPORT, MARYLAND


Home > North America > United States > Maryland
Elevation: 36 feet     Latitude: 39 37N     Longitude: 077 51W

WEATHER
 
SELECT A DAY
Number of Records: 189,947;   Date Range: 1/1/95 - 10/22/14
 
SHARE

PRINT THIS DATA

[ ← Previous Day ]
WEATHER ALMANAC - JULY 22, 2014
[ Next Day → ]
[ °C ]   °F
Weather ElementAverageHighLow
Temperature77.6 °F84.9 °F (3:53 pm)69.8 °F (5:51 am)
Dewpoint68.5 °F70 °F (9:53 pm)66.9 °F (1:53 am)
Humidity74.6 %94 % (5:51 am)55 % (4:53 pm)
Barometer30.15 in30.22 in (7:53 am)30.07 in (11:53 pm)
Wind Speed7.6 mph12.7 mph (11:38 am)
Wind Gust17.3 mph (2:53 pm)
Weather ElementAverage
Visibility9.4 mi
Wind DirectionSSE (141.6 °)

Weather ElementTotal
Precipitation---
Cooling Degree Days12.4 (Base 65)
Growing Degree Days27.4 (Base 50)
Averaged from 31 records on July 22, 2014
WEATHER CONDITIONS BREAKOUT
WIND DIRECTION BREAKOUT
WEATHER BY HOUR - JULY 22, 2014
[ °C ]   °F
Local TimeTemperatureDewpointHumidityBarometerVisibilityWind DirectionWind SpeedGust SpeedPrecipitationEventsConditions
1:53 AM72.0 °F66.9 °F84 %30.18 in10.0 miSSE (160°)6.9 mphClear
2:53 AM71.1 °F66.9 °F87 %30.18 in10.0 miSouth (170°)5.8 mphClear
3:53 AM71.1 °F66.9 °F87 %30.17 in10.0 miSSE (160°)5.8 mphPartly Cloudy
4:43 AM71.1 °F68.0 °F90 %30.17 in10.0 miCalmMostly Cloudy
4:53 AM71.1 °F68.0 °F90 %30.18 in10.0 miCalmOvercast
5:51 AM69.8 °F68.0 °F94 %30.17 in7.0 miEast (90°)4.6 mphOvercast
5:53 AM70.0 °F68.0 °F93 %30.18 in8.0 miEast (90°)4.6 mphOvercast
6:53 AM71.1 °F68.0 °F90 %30.20 in6.0 miEast (90°)4.6 mphOvercast
7:53 AM72.0 °F69.1 °F91 %30.22 in5.0 miEast (80°)3.5 mphOvercast
8:35 AM73.0 °F69.1 °F87 %30.20 in7.0 miESE (120°)4.6 mphOvercast
8:53 AM73.9 °F69.1 °F85 %30.21 in8.0 miSE (130°)5.8 mphOvercast
10:16 AM77.0 °F69.1 °F76 %30.19 in10.0 miSSE (150°)4.6 mphOvercast
10:53 AM78.1 °F69.1 °F74 %30.19 in10.0 miSouth (180°)9.2 mphOvercast
11:38 AM80.1 °F69.1 °F69 %30.17 in10.0 miSouth (170°)12.7 mphMostly Cloudy
11:53 AM79.0 °F69.1 °F72 %30.18 in10.0 miSSE (150°)9.2 mphMostly Cloudy
12:05 PM80.1 °F69.1 °F69 %30.17 in10.0 miSouth (180°)9.2 mphMostly Cloudy
12:37 PM81.0 °F68.0 °F65 %30.16 in10.0 miSSE (160°)10.4 mphMostly Cloudy
12:46 PM81.0 °F69.1 °F67 %30.16 in10.0 miSSE (150°)11.5 mphScattered Clouds
12:53 PM81.0 °F69.1 °F67 %30.17 in10.0 miSouth (170°)10.4 mphMostly Cloudy
1:23 PM82.0 °F68.0 °F62 %30.15 in10.0 miSSE (160°)8.1 mphMostly Cloudy
1:53 PM82.0 °F69.1 °F65 %30.15 in10.0 miSE (130°)10.4 mphMostly Cloudy
2:53 PM82.9 °F68.0 °F60 %30.14 in10.0 miSSE (160°)10.4 mph17.3 mphMostly Cloudy
3:53 PM84.9 °F68.0 °F57 %30.12 in10.0 miSouth (190°)9.2 mphMostly Cloudy
4:53 PM84.9 °F66.9 °F55 %30.10 in10.0 miSSE (150°)9.2 mphPartly Cloudy
5:53 PM84.9 °F68.0 °F57 %30.09 in10.0 miSouth (170°)10.4 mphPartly Cloudy
6:53 PM84.0 °F68.0 °F58 %30.09 in10.0 miSouth (180°)11.5 mphScattered Clouds
7:53 PM82.0 °F69.1 °F65 %30.08 in10.0 miSSE (160°)8.1 mphClear
8:53 PM81.0 °F69.1 °F67 %30.09 in10.0 miSouth (170°)9.2 mphClear
9:53 PM79.0 °F70.0 °F74 %30.10 in10.0 miSouth (170°)6.9 mphClear
10:53 PM78.1 °F70.0 °F76 %30.09 in10.0 miSouth (170°)10.4 mphPartly Cloudy
11:53 PM77.0 °F70.0 °F79 %30.07 in10.0 miSouth (180°)9.2 mphClear
Hourly data recorded from KHGR, located miles away from Williamsport, Maryland







STORIES FROM OUR PARTNERS